Location: Unspecified
(0.0000°N, 0.0000°E)
Time: 19:07:10
(UTC+00:00)

S-56A Canister/Altair - Pass Details

Date: 23 November 2019
Orbit: 633 x 2500 km, 38.9° (Epoch: 08 December)

Event Time Altitude Azimuth Distance (km) Brightness Sun altitude
Rises 23:39:36 0° 316° (NW) 2,972 - -69.5°
Reaches altitude 10° 23:41:56 10° 319° (NW) 2,010 - -69.5°
Maximum altitude 23:46:18 66° 42° (NE) 696 - -69.6°
Drops below altitude 10° 23:51:07 10° 124° (SE) 2,204 - -69.5°
Sets 23:53:47 0° 127° (SE) 3,292 - -69.5°
